Location: Unspecified
(34.0866°N, 0.0000°E)
Time: 06:57:27
(UTC+00:00)

NOAA 18 - Visible Passes

Search period start: 04 April 2026 00:00
Search period end: 14 April 2026 00:00
Orbit: 836 x 857 km, 98.8° (Epoch: 29 March)

Date Brightness Start Highest point End Pass type
(mag) Time Alt. Az. Time Alt. Az. Time Alt. Az.
4 Apr 8.0 22:49:31 11° NNW 22:49:31 11° NNW 22:49:47 10° NNW visible
5 Apr 7.9 22:36:14 13° NNW 22:36:14 13° NNW 22:36:51 10° NNW visible
6 Apr 7.7 22:22:58 15° N 22:22:58 15° N 22:23:51 10° N visible
7 Apr 7.6 22:09:41 16° N 22:09:41 16° N 22:10:46 10° N visible
8 Apr 7.5 21:56:25 17° N 21:56:25 17° N 21:57:36 10° N visible
9 Apr 7.4 21:43:08 16° NNE 21:43:08 16° NNE 21:44:23 10° N visible
10 Apr 7.4 21:29:52 15° NNE 21:29:52 15° NNE 21:31:01 10° NNE visible
10 Apr 8.0 23:11:46 11° NNW 23:11:46 11° NNW 23:12:01 10° NNW visible
11 Apr 7.5 21:16:35 13° NNE 21:16:35 13° NNE 21:17:32 10° NNE visible
11 Apr 7.9 22:58:30 14° NNW 22:58:30 14° NNW 22:59:14 10° NNW visible
12 Apr 7.5 21:03:19 11° NE 21:03:19 11° NE 21:03:47 10° NNE visible
12 Apr 7.7 22:45:13 17° NNW 22:45:13 17° NNW 22:46:23 10° NNW visible
13 Apr 7.5 22:31:57 19° NNW 22:31:57 19° NNW 22:33:25 10° NNW visible
